Location: Étang Rond
(42.7927°N, 1.0661°E)
Time: 00:50:00
(UTC+00:00)

Cosmos 1943 Rocket - Pass Details

Date: 08 November 2025
Orbit: 812 x 841 km, 71.0° (Epoch: 07 December)

Event Time Altitude Azimuth Distance (km) Brightness Sun altitude
Exits shadow 05:47:41 - 327° (NNW) 3,102 4.7 -9.8°
Reaches altitude 10° 05:49:34 10° 322° (NW) 2,418 4.1 -9.4°
Maximum altitude 05:54:41 40° 254° (WSW) 1,180 2.6 -8.5°
Drops below altitude 10° 05:59:45 10° 186° (S) 2,392 4.7 -7.6°
Sets 06:02:17 0° 179° (S) 3,318 5.5 -7.2°
